Back to catalog

STARLINK-34766

AliveCommunicationsVLEO
NORAD 66505·PAYLOAD·🇺🇸 United States

Launched Nov 15, 2025 from Cape Canaveral Space Force Station

Loading…

Next Passes (next 24 hours)

TLE

FreshSource: CelesTrak SupGP

Epoch: Sep 14, 2026, 15:36 UTC

1 66505C 25263W   26257.65048611  .00004901  00000+0  17758-3 0  2574
2 66505  43.0028   3.1620 0001523 277.1613  40.0862 15.27565892    12

Track STARLINK-34766 in real time with AllMySat

Download on the App Store